Date String (YYYY-MM-DD hh:mm:ss) UTC,Instrument flags,Ambient pressure (hPa),Sample flow (lpm),Bypass flow (lpm),Sample temperature (°C),Ambient temperature (°C),ASC tube jacket temperature (°C),LED temperature (°C),Box temperature (°C),Sample RH (%),Span deviation,Mass concentration (μg/m³),Mass concentration (μg/m³),Mass concentration (μg/m³)
DateTimeUTC,F1_M11,P_M11,Q1_M11,Q2_M11,T1_M11,T2_M11,T3_M11,T4_M11,T5_M11,U1_M11,ZSPAN_M11,X0_M11,X2_M11,X1_M11
2022-10-01 20:00:00,,0827.1,4.99,0.00,30.0,28.1,00.0,38.6,31.9,26.2,-001.7,0009.36,0005.31,0004.98
2022-10-01 20:01:00,,0827.2,4.99,0.00,30.0,26.7,00.0,38.6,31.8,26.5,-002.6,0009.28,0005.30,0004.97
2022-10-01 20:02:00,,0827.3,5.00,0.00,29.9,26.2,00.0,38.5,31.7,26.3,-002.7,0009.22,0005.30,0004.96
2022-10-01 20:03:00,,0827.5,5.00,0.00,29.8,26.4,00.0,38.5,31.5,26.7,-002.2,0009.17,0005.29,0004.98
2022-10-01 20:04:00,,0827.3,5.02,0.00,29.8,26.8,00.0,38.4,31.4,26.9,-002.1,0009.27,0005.27,0004.97
2022-10-01 20:05:00,,0827.0,5.01,0.00,29.7,27.2,00.0,38.4,31.5,26.7,-002.3,0009.19,0005.22,0004.93
2022-10-01 20:06:00,,0827.2,5.00,0.00,29.7,27.5,00.0,38.4,31.5,26.5,-002.2,0009.29,0005.22,0004.94
2022-10-01 20:07:00,,0827.2,4.99,0.00,29.7,27.8,00.0,38.4,31.5,27.5,-001.7,0009.29,0005.21,0004.94
2022-10-01 20:08:00,,0827.1,5.00,0.00,29.7,27.9,00.0,38.4,31.6,27.1,-001.9,0009.68,0005.20,0004.91
2022-10-01 20:09:00,,0827.1,5.00,0.00,29.7,28.2,00.0,38.4,31.6,26.6,-002.3,0009.80,0005.21,0004.93
2022-10-01 20:10:00,,0827.1,5.01,0.00,29.7,28.4,00.0,38.4,31.7,26.4,-002.2,0009.54,0005.21,0004.95
2022-10-01 20:11:00,,0827.1,4.99,0.00,29.7,28.5,00.0,38.4,31.7,26.4,-002.0,0008.97,0005.23,0004.97
2022-10-01 20:12:00,,0827.1,5.01,0.00,29.8,28.6,00.0,38.4,31.7,26.3,-001.9,0009.04,0005.26,0004.99
2022-10-01 20:13:00,,0827.1,4.99,0.00,29.8,28.7,00.0,38.5,31.8,26.3,-001.7,0009.09,0005.28,0004.99
2022-10-01 20:14:00,,0827.1,5.00,0.00,29.8,28.8,00.0,38.5,31.8,26.2,-002.3,0009.08,0005.28,0004.97
2022-10-01 20:15:00,,0827.1,5.00,0.00,29.9,28.9,00.0,38.5,31.8,26.0,-002.5,0008.95,0005.30,0004.98
2022-10-01 20:16:00,,0827.1,4.99,0.00,29.9,29.0,00.0,38.5,31.9,26.2,-002.7,0008.94,0005.31,0004.99
2022-10-01 20:17:00,,0827.1,5.00,0.00,29.9,29.0,00.0,38.5,31.9,26.1,-002.8,0009.12,0005.32,0004.98
2022-10-01 20:18:00,,0827.1,5.01,0.00,30.0,28.9,00.0,38.6,32.0,26.1,-003.0,0009.56,0005.33,0004.98
2022-10-01 20:19:00,,0827.2,5.01,0.00,30.0,27.6,00.0,38.5,31.8,26.0,-003.3,0009.31,0005.35,0005.01
2022-10-01 20:20:00,,0827.1,5.00,0.00,29.9,26.4,00.0,38.5,31.6,25.8,-003.1,0009.13,0005.36,0005.01
2022-10-01 20:21:00,,0827.1,5.00,0.00,29.8,26.2,00.0,38.5,31.5,25.9,-003.1,0009.12,0005.38,0005.02
2022-10-01 20:22:00,,0827.3,5.01,0.00,29.7,26.5,00.0,38.4,31.3,26.3,-003.0,0009.09,0005.39,0005.01
2022-10-01 20:23:00,,0827.0,4.99,0.00,29.7,26.8,00.0,38.4,31.3,26.1,-002.8,0009.09,0005.39,0005.00
2022-10-01 20:24:00,,0827.1,5.00,0.00,29.6,27.1,00.0,38.4,31.4,26.2,-002.6,0008.93,0005.32,0004.96
2022-10-01 20:25:00,,0827.1,5.01,0.00,29.6,27.5,00.0,38.4,31.4,26.1,-002.5,0008.89,0005.29,0004.95
2022-10-01 20:26:00,,0826.9,4.99,0.00,29.6,27.8,00.0,38.3,31.4,26.3,-001.9,0008.87,0005.27,0004.92
2022-10-01 20:27:00,,0826.8,5.00,0.00,29.6,28.0,00.0,38.3,31.5,27.0,-001.5,0008.79,0005.21,0004.88
2022-10-01 20:28:00,,0827.0,5.00,0.00,29.6,28.2,00.0,38.3,31.5,26.8,-001.1,0008.53,0005.14,0004.85
2022-10-01 20:29:00,,0826.8,5.00,0.00,29.7,28.3,00.0,38.4,31.6,27.2,-001.1,0008.42,0005.09,0004.80
2022-10-01 20:30:00,,0826.9,4.99,0.00,29.7,28.4,00.0,38.4,31.6,27.2,-000.9,0008.31,0005.03,0004.74
2022-10-01 20:31:00,,0827.2,5.01,0.00,29.7,28.6,00.0,38.4,31.7,26.5,-000.2,0008.34,0004.98,0004.69
2022-10-01 20:32:00,,0826.8,4.99,0.00,29.8,28.7,00.0,38.4,31.7,26.7,0000.0,0008.91,0004.94,0004.64
2022-10-01 20:33:00,,0827.0,5.01,0.00,29.8,28.8,00.0,38.4,31.8,26.1,-000.6,0008.83,0004.90,0004.63
2022-10-01 20:34:00,,0827.0,4.99,0.00,29.8,28.8,00.0,38.4,31.8,26.1,-000.6,0008.75,0004.88,0004.64
2022-10-01 20:35:00,,0826.8,5.01,0.00,29.9,28.9,00.0,38.5,31.8,26.4,-001.0,0008.92,0004.90,0004.64
2022-10-01 20:36:00,,0826.8,4.99,0.00,29.9,29.0,00.0,38.5,31.9,26.0,-001.1,0008.87,0004.86,0004.62
2022-10-01 20:37:00,,0826.8,4.99,0.00,29.9,29.1,00.0,38.5,31.9,25.9,-001.3,0008.84,0004.86,0004.61
2022-10-01 20:38:00,,0826.7,5.01,0.00,30.0,29.1,00.0,38.5,32.0,26.2,-001.4,0008.97,0004.87,0004.61
2022-10-01 20:39:00,,0826.6,4.99,0.00,30.0,29.1,00.0,38.6,32.0,26.1,-001.8,0009.00,0004.87,0004.60
2022-10-01 20:40:00,,0826.7,5.00,0.00,30.0,28.1,00.0,38.6,32.0,25.7,-002.1,0008.69,0004.89,0004.62
2022-10-01 20:41:00,,0826.7,5.01,0.00,30.0,26.7,00.0,38.6,31.7,25.6,-001.8,0009.34,0004.98,0004.70
2022-10-01 20:42:00,,0826.7,5.01,0.00,29.9,26.2,00.0,38.5,31.6,25.7,-001.5,0009.49,0005.03,0004.76
2022-10-01 20:43:00,,0826.7,4.99,0.00,29.8,26.4,00.0,38.5,31.5,26.1,-001.3,0009.21,0005.02,0004.77
2022-10-01 20:44:00,,0826.7,4.99,0.00,29.7,26.7,00.0,38.4,31.4,26.1,-001.4,0009.24,0005.03,0004.77
2022-10-01 20:45:00,,0826.7,5.01,0.00,29.7,27.1,00.0,38.4,31.4,26.2,-001.7,0009.25,0005.01,0004.74
2022-10-01 20:46:00,,0826.6,5.00,0.00,29.7,27.4,00.0,38.4,31.5,26.4,-002.0,0009.12,0004.97,0004.71
2022-10-01 20:47:00,,0826.7,4.99,0.00,29.7,27.7,00.0,38.4,31.5,26.5,-001.9,0009.10,0004.95,0004.68
2022-10-01 20:48:00,,0826.6,4.99,0.00,29.7,28.0,00.0,38.4,31.5,26.1,-002.0,0009.11,0004.92,0004.63
2022-10-01 20:49:00,,0826.7,5.00,0.00,29.7,28.2,00.0,38.4,31.6,25.9,-002.1,0009.16,0004.93,0004.62
2022-10-01 20:50:00,,0826.7,5.02,0.00,29.7,28.4,00.0,38.4,31.6,26.2,-002.0,0009.05,0004.93,0004.61
2022-10-01 20:51:00,,0826.7,4.99,0.00,29.7,28.5,00.0,38.4,31.7,26.1,-001.9,0009.01,0004.91,0004.58
2022-10-01 20:52:00,,0826.7,5.01,0.00,29.8,28.7,00.0,38.4,31.7,25.9,-002.4,0008.36,0004.84,0004.51
2022-10-01 20:53:00,,0826.7,4.99,0.00,29.8,28.8,00.0,38.4,31.8,26.0,-002.7,0008.20,0004.77,0004.43
2022-10-01 20:54:00,,0826.7,5.02,0.00,29.8,28.9,00.0,38.5,31.8,25.8,-003.0,0008.36,0004.73,0004.40
2022-10-01 20:55:00,,0826.7,4.99,0.00,29.9,28.9,00.0,38.5,31.9,25.9,-003.0,0008.33,0004.69,0004.36
2022-10-01 20:56:00,,0826.7,5.01,0.00,29.9,29.0,00.0,38.5,31.9,25.6,-003.0,0008.24,0004.62,0004.30
2022-10-01 20:57:00,,0826.6,4.99,0.00,29.9,29.1,00.0,38.5,32.0,25.7,-002.6,0008.15,0004.56,0004.24
2022-10-01 20:58:00,,0826.6,5.01,0.00,30.0,29.1,00.0,38.6,32.0,25.7,-003.1,0008.07,0004.51,0004.19
2022-10-01 20:59:00,,0826.6,4.99,0.00,30.0,29.0,00.0,38.6,32.0,25.6,-003.4,0007.95,0004.44,0004.14
